Stations météo

Publicité
Achnagart, Grande-Bretagne (99191): Température de l'air & dewpoint: 14.04.2019 13:00:00 - 20.04.2019 13:00:00 (BST)Achnagart, Grande-Bretagne (99191): Quantités de précipitations: 14.04.2019 13:00:00 - 20.04.2019 13:00:00 (BST)
Date & Time tt [°C] td [°C] rr [mm]
20.04.2019 13:00:00 14,2 10,2 0,0
20.04.2019 12:00:00 13,9 9,8 0,0
20.04.2019 11:00:00 14,1 9,8 0,0
20.04.2019 10:00:00 12,5 9,9 0,0
20.04.2019 09:00:00 10,8 9,8 0,0
20.04.2019 08:00:00 9,3 8,9 0,0
20.04.2019 07:00:00 8,7 8,0 0,0
20.04.2019 06:00:00 9,7 8,5 0,0
20.04.2019 05:00:00 9,1 8,0 0,0
20.04.2019 04:00:00 10,6 8,6 0,0
20.04.2019 03:00:00 11,1 8,8 0,0
20.04.2019 02:00:00 13,3 8,3 0,0
20.04.2019 01:00:00 14,6 7,4 0,0
20.04.2019 00:00:00 14,1 6,9 0,0
19.04.2019 23:00:00 14,2 6,4 0,0
19.04.2019 22:00:00 15,3 5,5 0,0
19.04.2019 21:00:00 18,0 5,2 0,0
19.04.2019 20:00:00 18,7 4,8 0,0
19.04.2019 19:00:00 19,5 4,9 0,0
19.04.2019 18:00:00 20,5 5,6 0,0
19.04.2019 17:00:00 21,4 7,7 0,0
19.04.2019 16:00:00 21,3 6,8 0,0
19.04.2019 15:00:00 21,7 7,2 0,0
19.04.2019 14:00:00 21,4 7,3 0,0
19.04.2019 13:00:00 20,5 6,4 0,0
19.04.2019 12:00:00 19,7 7,5 0,0
19.04.2019 11:00:00 17,9 6,9 0,0
19.04.2019 10:00:00 15,7 5,6 0,0
19.04.2019 09:00:00 13,0 4,1 0,0
19.04.2019 08:00:00 11,5 3,2 0,0
19.04.2019 07:00:00 11,6 2,7 0,0
19.04.2019 06:00:00 11,5 2,5 0,0
19.04.2019 05:00:00 11,4 2,7 0,0
19.04.2019 04:00:00 12,3 2,5 0,0
19.04.2019 03:00:00 13,3 2,4 0,0
19.04.2019 02:00:00 13,3 4,2 0,0
19.04.2019 01:00:00 13,4 5,3 0,0
19.04.2019 00:00:00 14,3 7,2 0,0
18.04.2019 23:00:00 14,6 7,5 0,0
18.04.2019 22:00:00 14,9 7,6 0,0
18.04.2019 21:00:00 15,4 7,4 0,0
18.04.2019 20:00:00 17,0 7,3 0,0
18.04.2019 19:00:00 17,7 6,7 0,0
18.04.2019 18:00:00 18,1 5,8 0,0
18.04.2019 17:00:00 20,2 5,6 0,0
18.04.2019 16:00:00 20,4 5,0 0,0
18.04.2019 15:00:00 20,2 6,3 0,0
18.04.2019 14:00:00 19,3 6,2 0,0
18.04.2019 13:00:00 18,8 5,3 0,0
18.04.2019 12:00:00 18,4 4,1 0,0
18.04.2019 11:00:00 17,2 4,8 0,0
18.04.2019 10:00:00 14,5 5,6 0,0
18.04.2019 09:00:00 13,0 4,5 0,0
18.04.2019 08:00:00 12,1 3,3 0,0
18.04.2019 07:00:00 11,6 3,5 0,0
18.04.2019 06:00:00 11,4 3,1 0,0
18.04.2019 05:00:00 11,9 2,6 0,0
18.04.2019 04:00:00 11,0 2,2 0,0
18.04.2019 03:00:00 11,4 1,7 0,0
18.04.2019 02:00:00 10,8 1,8 0,0
18.04.2019 01:00:00 10,7 2,5 0,0
18.04.2019 00:00:00 11,1 2,9 0,0
17.04.2019 23:00:00 11,1 3,3 0,0
17.04.2019 22:00:00 11,4 3,9 0,0
17.04.2019 21:00:00 12,2 4,6 0,0
17.04.2019 20:00:00 13,2 4,9 0,0
17.04.2019 19:00:00 14,4 4,5 0,0
17.04.2019 18:00:00 14,8 4,5 0,0
17.04.2019 17:00:00 16,2 4,5 0,0
17.04.2019 16:00:00 16,3 4,3 0,0
17.04.2019 15:00:00 15,9 4,2 0,0
17.04.2019 14:00:00 15,6 3,6 0,0
17.04.2019 13:00:00 14,8 3,0 0,0
17.04.2019 12:00:00 13,0 2,2 0,0
17.04.2019 11:00:00 11,9 2,6 0,0
17.04.2019 10:00:00 9,8 1,8 0,0
17.04.2019 09:00:00 9,6 1,0 0,0
17.04.2019 08:00:00 8,9 1,0 0,0
17.04.2019 07:00:00 8,4 1,3 0,0
17.04.2019 06:00:00 8,3 1,7 0,0
17.04.2019 05:00:00 7,8 2,7 0,0
17.04.2019 04:00:00 7,6 3,3 0,0
17.04.2019 03:00:00 7,8 3,5 0,0
17.04.2019 02:00:00 7,7 4,0 0,0
17.04.2019 01:00:00 7,5 4,7 0,0
17.04.2019 00:00:00 7,3 5,1 0,2
16.04.2019 23:00:00 7,5 5,4 0,0
16.04.2019 22:00:00 7,5 5,4 0,4
16.04.2019 21:00:00 8,1 5,3 0,0
16.04.2019 20:00:00 8,4 5,5 0,0
16.04.2019 19:00:00 8,7 6,0 0,4
16.04.2019 18:00:00 9,6 6,1 0,2
16.04.2019 17:00:00 9,9 6,2 0,2
16.04.2019 16:00:00 9,6 6,3 0,8
16.04.2019 15:00:00 9,1 6,7 2,2
16.04.2019 14:00:00 9,0 6,8 2,0
16.04.2019 13:00:00 8,9 6,9 1,0
16.04.2019 12:00:00 9,7 5,7 0,0
16.04.2019 11:00:00 10,4 4,2 0,0
16.04.2019 10:00:00 9,2 4,7 0,0
16.04.2019 09:00:00 9,3 3,8 0,0
16.04.2019 08:00:00 9,4 2,4 0,0
16.04.2019 07:00:00 9,3 2,0 0,0
16.04.2019 06:00:00 9,1 2,0 0,0
16.04.2019 05:00:00 9,2 2,0 0,0
16.04.2019 04:00:00 9,2 1,5 0,0
16.04.2019 03:00:00 8,9 1,4 0,0
16.04.2019 02:00:00 9,0 0,8 0,0
16.04.2019 01:00:00 9,3 0,8 0,0
16.04.2019 00:00:00 9,1 1,3 0,0
15.04.2019 23:00:00 9,6 1,2 0,0
15.04.2019 22:00:00 9,7 1,1 0,0
15.04.2019 21:00:00 9,7 0,2 0,0
15.04.2019 20:00:00 10,2 -0,4 0,0
15.04.2019 19:00:00 10,3 -0,1 0,0
15.04.2019 18:00:00 10,9 -0,6 0,0
15.04.2019 17:00:00 11,7 -2,5 0,0
15.04.2019 16:00:00 12,2 -2,4 0,0
15.04.2019 15:00:00 11,6 -3,0 0,0
15.04.2019 14:00:00 11,9 -1,2 0,0
15.04.2019 13:00:00 11,1 -0,6 0,0
15.04.2019 12:00:00 9,1 -0,7 0,0
15.04.2019 11:00:00 7,9 -0,9 0,0
15.04.2019 10:00:00 7,2 -1,4 0,0
15.04.2019 09:00:00 6,3 -2,5 0,0
15.04.2019 08:00:00 6,2 -2,1 0,0
15.04.2019 07:00:00 5,8 -2,0 0,0
15.04.2019 06:00:00 5,2 -2,6 0,0
15.04.2019 05:00:00 5,7 -2,2 0,0
15.04.2019 04:00:00 6,0 -2,1 0,0
15.04.2019 03:00:00 6,2 -1,4 0,0
15.04.2019 02:00:00 6,7 -0,8 0,0
15.04.2019 01:00:00 6,7 -1,1 0,0
15.04.2019 00:00:00 6,7 -2,3 0,0
14.04.2019 23:00:00 7,0 -2,1 0,0
14.04.2019 22:00:00 7,2 -1,5 0,0
14.04.2019 21:00:00 7,7 -1,2 0,0
14.04.2019 20:00:00 8,1 -1,1 0,0
14.04.2019 19:00:00 8,7 -0,9 0,0
14.04.2019 18:00:00 9,0 -1,0 0,0
14.04.2019 17:00:00 8,8 -0,9 0,0
14.04.2019 16:00:00 9,0 -1,7 0,0
14.04.2019 15:00:00 9,3 -1,6 0,0
14.04.2019 14:00:00 10,1 -2,4 0,0
14.04.2019 13:00:00 10,4 -2,3 0,0

tt = Température de l'air
td = dewpoint
rr = Quantités de précipitations

stations d'obs. à proximité